#timestamp,LO_Frequency,Hit,StdDev 
1594090815.3,286047006.2,N
1594090835.2,286047007.2,N
1594090855.0,286047005.2,N
1594090855.9,286047005.2,N
1594090875.8,286047007.4,N
1594090895.6,286047008.9,Y
1594090915.4,286047003.1,P
1594090935.3,286047005.5,N
1594090955.1,286047005.8,P
1594090975.9,286047006.3,Y
1594090995.7,286047000.2,P
1594091015.5,286046998.5,N
1594091035.4,286046999.2,N
1594091055.2,286046999.3,N
1594091075.0,286047000.5,N
1594091075.9,286047000.5,N
1594091095.8,286047000.2,N
1594091115.6,286047000.0,N
1594091135.5,286046999.9,N
1594091155.3,286047002.5,N
1594091175.1,286047002.4,N
1594091195.9,286047001.7,N
1594091215.7,286047002.5,N
1594091235.6,286047002.0,N
1594091255.4,286047002.2,N
1594091275.2,286047001.5,N
1594091295.1,286047004.8,N
1594091296.0,286047004.8,N
1594091315.8,286047007.3,Y
1594091335.7,286047003.1,P
1594091355.5,286047004.0,P
1594091375.3,286047003.2,P
1594091395.2,286047004.7,Y
1594091415.0,286047002.0,P
1594091415.9,286047002.0,P
1594091435.8,286047004.4,P
1594091455.6,286047001.4,N
1594091475.4,286047004.4,Y
1594091495.3,286047002.7,P
1594091515.1,286047002.2,P
1594091535.8,286047002.1,P
1594091555.7,286047002.3,Y
1594091575.5,286046998.1,P
1594091595.4,286046998.3,N
1594091615.2,286046998.4,N
1594091635.0,286047002.4,N
1594091635.9,286047002.4,N
1594091655.8,286047002.4,N
1594091675.6,286047002.8,N
1594091695.5,286047001.6,N
1594091715.3,286047002.4,N
1594091735.1,286047002.6,N
1594091755.9,286047001.9,N
1594091775.7,286047003.1,N
1594091795.6,286047000.1,N
1594091815.4,286046999.9,N
1594091835.2,286047000.4,N
1594091855.1,286046998.1,N
1594091856.0,286046998.1,N
1594091875.8,286047000.0,N
1594091895.7,286047002.8,N
1594091915.5,286046998.1,N
1594091935.3,286046996.7,N
1594091955.2,286046998.0,N
1594091975.0,286046997.1,N
1594091975.9,286046997.1,N
1594091995.7,286046997.5,N
1594092015.6,286046997.8,N
1594092035.4,286046995.4,N
1594092055.3,286046999.4,N
1594092075.1,286046998.3,N
1594092076.0,286046998.3,N
1594092095.8,286046998.3,N
1594092115.7,286047001.2,N
1594092135.5,286047000.4,N
1594092155.4,286047002.4,N
1594092175.2,286047004.4,N
1594092195.0,286047005.2,N
1594092195.9,286047005.2,N
1594092215.8,286047008.8,Y
1594092235.6,286047010.3,P
1594092255.5,286047008.0,N
1594092275.3,286047009.2,N
1594092295.1,286047008.8,N
1594092315.9,286047008.5,N
1594092335.7,286047009.0,N
1594092355.5,286047005.1,N
1594092375.4,286047002.9,N
1594092395.2,286047003.7,N
1594092415.0,286047003.5,N
1594092416.0,286047003.5,N
1594092435.8,286047001.8,N
1594092455.6,286047005.8,N
1594092475.5,286047005.4,N
1594092495.3,286047004.7,N
1594092515.1,286047006.4,N
1594092535.9,286047006.7,N
1594092555.7,286047009.5,Y
1594092575.6,286047005.2,P
1594092595.4,286047003.2,P
1594092615.2,286047003.1,N
1594092635.1,286047002.3,N
1594092636.0,286047002.3,N
1594092655.8,286047000.3,N
1594092675.6,286047002.5,N
1594092695.5,286047000.3,N
1594092715.3,286047002.3,N
1594092735.2,286047001.1,N
1594092755.9,286046997.2,N
1594092775.7,286046995.9,N
1594092795.6,286046993.9,N
1594092815.4,286046992.5,N
1594092835.2,286046992.4,N
1594092855.1,286046994.0,N
1594092856.0,286046994.0,N
1594092875.8,286046997.7,N
1594092895.7,286047001.1,N
1594092915.5,286047000.9,N
1594092935.3,286046998.5,N
1594092955.2,286046998.5,N
1594092975.0,286046997.5,N
1594092975.9,286046997.5,N
1594092995.7,286046994.9,N
1594093015.6,286046995.8,N
1594093035.4,286046995.8,N
1594093055.3,286046996.5,N
1594093075.1,286046997.1,N
1594093076.0,286046997.1,N
1594093095.8,286046997.1,N
1594093115.7,286047000.9,N
1594093135.5,286047000.1,N
1594093155.3,286047000.0,N
1594093175.2,286046998.1,N
1594093195.0,286047000.8,N
1594093195.9,286047000.8,N
1594093215.8,286046999.4,N
1594093235.6,286046998.6,N
1594093255.4,286046997.0,N
1594093275.3,286046994.9,N
1594093295.1,286046997.7,N
1594093315.8,286046997.9,N
1594093335.7,286046995.8,N
1594093355.5,286046997.2,N
1594093375.4,286046999.1,N
1594093395.2,286046998.7,N
1594093415.0,286046998.5,N
1594093415.9,286046998.5,N
1594093435.8,286047000.8,N
1594093455.6,286047000.4,N
1594093475.4,286047001.4,N
1594093495.3,286047002.0,N
1594093515.1,286047003.7,N
1594093535.9,286047003.5,N
1594093555.7,286047001.3,N
1594093575.5,286047004.1,N
1594093595.4,286047004.2,N
1594093615.2,286047003.5,N
1594093635.0,286047004.9,N
1594093635.9,286047004.9,N
1594093655.8,286047005.7,N
1594093675.6,286047004.0,N
1594093695.5,286047001.5,N
1594093715.3,286047002.1,N
1594093735.1,286047002.3,N
1594093755.9,286047000.6,N
1594093775.7,286047002.3,N
1594093795.5,286047001.7,N
1594093815.4,286047004.0,N
1594093835.2,286047002.9,N
1594093855.1,286047005.6,N
1594093856.0,286047005.6,N
1594093875.8,286047004.2,N
1594093895.6,286047003.5,N
1594093915.5,286047004.6,N
1594093935.3,286047005.3,N
1594093955.2,286047005.8,N
1594093975.9,286047002.9,N
1594093995.7,286047003.2,N
1594094015.6,286047003.1,N
1594094035.4,286047003.8,N
1594094055.2,286047007.5,Y
1594094075.1,286047003.2,P
1594094076.0,286047003.2,P
1594094095.8,286047003.0,P
1594094115.7,286047003.1,Y
1594094135.5,286047002.3,P
1594094155.3,286047002.6,P
1594094175.2,286047002.1,P
1594094195.0,286047001.3,N
1594094195.9,286047001.3,N
1594094215.8,286047001.9,N
1594094235.6,286047001.5,N
1594094255.4,286047002.3,Y
1594094275.3,286046999.5,P
1594094295.1,286046999.1,N
1594094315.8,286046998.9,N
1594094335.7,286046998.3,N
1594094355.5,286047000.9,N
1594094375.4,286046998.2,N
1594094395.2,286047002.4,N
